Voltar ao catálogo

COSMOS 1275 DEB

AtivoPO
NORAD 12748·DEBRIS·🇷🇺 Russia

Lançado Jun 4, 1981 de Plesetsk Cosmodrome

Loading…

Próximas Passagens (próximas 24 horas)

TLE

AtualizadoSource: Space-Track

Época: Sep 14, 2026, 21:48 UTC

1 12748U 81053CR  26257.90874521  .00000174  00000-0  16451-3 0  9999
2 12748  82.9870 308.8452 0045337  64.6720 116.5915 13.74993972258709

Acompanhe COSMOS 1275 DEB em tempo real com AllMySat

Download on the App Store